This is the latest recevied weather packets stored in our database for station/object IK2CHZ-3. If no packets are shown the sender has not sent any weather packets the latest 10 day(s).
| Time | Temp. | Humidity | Pressure | Rain* | Wind** | Luminosity | Snow |
|---|---|---|---|---|---|---|---|
| 1777492561 | 18.33° C | 62% | 1017.3 hPa | 0 mm | - | - | - |
| 1777491900 | 18.33° C | 62% | 1017.2 hPa | 0 mm | - | - | - |
| 1777491240 | 18.33° C | 65% | 1017 hPa | 0 mm | - | - | - |
| 1777490581 | 17.78° C | 66% | 1016.8 hPa | 0 mm | - | - | - |
| 1777489922 | 18.33° C | 66% | 1016.7 hPa | 0 mm | - | - | - |
| 1777489261 | 18.33° C | 65% | 1016.5 hPa | 0 mm | - | - | - |
| 1777488602 | 18.33° C | 65% | 1016.2 hPa | 0 mm | - | - | - |
| 1777488119 | 18.89° C | 64% | 1016 hPa | 0 mm | - | - | - |
| 1777487941 | 18.89° C | 64% | 1016 hPa | 0 mm | - | - | - |
| 1777487333 | 18.89° C | 64% | 1015.9 hPa | 0 mm | - | - | - |
| 1777487282 | 18.89° C | 64% | 1015.9 hPa | 0 mm | - | - | - |
| 1777486620 | 18.89° C | 64% | 1015.8 hPa | 0 mm | - | - | - |
| 1777485961 | 19.44° C | 63% | 1015.7 hPa | 0 mm | - | - | - |
| 1777485634 | 19.44° C | 63% | 1015.6 hPa | 0 mm | - | - | - |
| 1777485302 | 19.44° C | 63% | 1015.6 hPa | 0 mm | - | - | - |
| 1777484641 | 19.44° C | 65% | 1015.3 hPa | 0 mm | - | - | - |
| 1777484070 | 20° C | 66% | 1015.2 hPa | 0 mm | - | - | - |
| 1777483982 | 20° C | 66% | 1015.2 hPa | 0 mm | - | - | - |
| 1777483613 | 20.56° C | 65% | 1015 hPa | 0 mm | - | - | - |
| 1777483321 | 20.56° C | 65% | 1015 hPa | 0 mm | - | - | - |
| 1777482662 | 20.56° C | 65% | 1014.9 hPa | 0 mm | - | - | - |
| 1777482001 | 20.56° C | 65% | 1014.9 hPa | 0 mm | - | - | - |
| 1777481340 | 20° C | 68% | 1015 hPa | 0 mm | - | - | - |
| 1777480681 | 20° C | 68% | 1015.1 hPa | 0 mm | - | - | - |
| 1777480021 | 20.56° C | 68% | 1015.2 hPa | 0 mm | - | - | - |
* Rain latest hour (hover to see other rain measurements)
** Current wind speed in m/s (hover to see current wind gust speed)